GPS BIIF-10 (40730 NORAD) Tracking and Keplerian Element Data

This shows tracking and keplerian element data for the satellite.

Feedback or suggestion? Click here.




ElementValue
Catalog40730
NameGPS BIIF-10
Epoch Orbit2201
Epoch Day198.46413201
Epoch Year2018
RAAN24.0017
Inclination55.5499
Eccentricity0.0035512
Argument of Perigee333.5671
Mean Anonmoly26.2814
Mean Motion2.00572815
Decay Rate-8.2E-07
L11 40730U 15033A 18198.46413201 -.00000082 00000-0 00000-0 0 9995
L22 40730 55.5499 24.0017 0035512 333.5671 26.2814 2.00572815 22019

Live tracking and technical data element details for GPS BIIF-10 (NORAD 40730). GPS BIIF-10 can be tracked NOW for your location showing map with azimuth and elevation plus other details from your city location.

Track the satellite on the map from your city or location and see movement details for azimuth, elevation, latitude, longitude, range, height, and movement on the map or in text.







IsCatalogInMostPopularTable: catalog: 40730, numindb: 66
Update: records affected: 1



GetName: 40730 GPS BIIF-10

Hit Count: updated at: Thu, 19 Jul 2018 21:13:57 GMT